星链-5911 (STARLINK-5911 )

导读

STARLINK-5911是美国SpaceX公司星链(Starlink)项目的低轨通信卫星,于2023年3月17日发射升空。作为星链星座的组成部分,它运行在近地轨道,依托相控阵天线与激光星间链路技术,为全球提供低延迟高速宽带服务,尤其能覆盖偏远地区,助力完善全球互联网覆盖,提升星座组网服务的稳定性与容量。

Basic Information
目录编号:
55950
目录名称:
STARLINK-5911
国际标识:
2023-037AN
轨道中心:
EARTH
卫星名称:
星链-5911
卫星全名:
星链-5911 (STARLINK-5911 )
卫星状态:
在轨 (已飞行1275 天)
发射日期:
2023-03-17 UTC
国别 :
美国 (US)
星等 :
--
This satellite is enrolled in the Space Conjunction Data Service (SCDS) and the current flight risk assessment level is: No High Risk
Orbit Information
数据来源 国际轨道数据
星历时间: 2026-09-12T10:25:43+0800
13小时前
查看轨道信息
半长轴: 6950.193km
偏心率: 0.0002743
轨道倾角: 69.999°
近地点辐角 260.951°
升交点赤经 154.535°
平近点角 99.134°
近地点: 570.149km
远地点: 573.963km
周期: 96.107分钟
每日圈数: 14.983302
Detailed Information
固有亮度:
5
最大亮度:
2.5
卫星平台:
Starlink v1.5
覆盖范围:
全球
运营商:
太空探索技术公司
运营商所在国:
美国
制造商(研发单位):
太空探索技术公司
制造商所在国:
美国
使用方式:
暂无
Satellite Introduction
星链(Starlink)计划是由太空探索技术公司(SpaceX)提出的一个巨型低轨卫星互联网星座项目,计划在2019年至2024年间在太空搭建由约1.2万颗卫星组成的“星链”网络,其中1584颗将部署在地球上空550千米处的近地轨道,并从2020年开始工作。该卫星仍在工作。
2D Orbit Map
3D Orbit Map
Orbit Altitude Analysis Chart
Orbit Inclination Analysis Chart
Orbit Comprehensive Analysis Chart
View Comprehensive Chart
Conjunction Data List
Event ID Objects TCA Miss Dist (km) Collision Risk Probability Collision Risk Index (CRI) Action
CDM_260914-025702-971305-595025
PSLV R/B (29713)
2026-09-14T
02:57:11+0000
1.775 km
极远距离
3.88225E-6 低风险 0.47
CDM_260913-225602-971305-595025
PSLV R/B (29713)
2026-09-13T
22:56:45+0000
2.302 km
极远距离
2.015082E-6 低风险 0.41
CDM_260914-071203-976905-595023
RISING 2 (39769)
2026-09-14T
07:12:27+0000
2.567 km
极远距离
1.692697E-6 低风险 0.4
CDM_260913-100603-915305-595023
2026-09-13T
10:06:20+0000
2.757 km
极远距离
1.262678E-6 低风险 0.37
Miss Distance Evolution Trend with All Objects
Collision Probability Evolution Trend with All Objects